Metropolis, IL

3:34 PM CDT on October 20, 2017 (GMT -0500)
Metropolis

Weather History for KM30 - March, 2013

Change the Weather History Date:

Tuesday, March 5, 2013

  Actual Average (KPAH) Record (KPAH)
Temperature  
Mean Temperature 40 °F -  
Max Temperature 47 °F 52 °F 78 °F (1938)
Min Temperature 33 °F 32 °F -2 °F (1960)
Degree Days  
Heating Degree Days 25    
Moisture  
Dew Point 33 °F    
Average Humidity 80    
Maximum Humidity 100    
Minimum Humidity 55    
Precipitation  
Precipitation 0.06 in - - ()
Sea Level Pressure  
Sea Level Pressure 29.90 in    
Wind  
Wind Speed 8 mph (WNW)    
Max Wind Speed 24 mph    
Max Gust Speed 32 mph    
Visibility 9 miles    
Events Rain , Snow    
Averages and records for this station are not official NWS values.
T = Trace of Precipitation, MM = Missing Value Source: NWS Daily Summary

Daily Weather History Graph

Daily Weather History Graph

Search for Another Location

Airport or City:

Trip Planner

Search our weather history database for the weather conditions in past years. The results will help you decide how hot, cold, wet, or windy it might be!

Date:

Astronomy

Mar. 05, 2013 Rise Set
Actual Time 6:20 AM CST 5:53 PM CST
Civil Twilight 5:54 AM CST 6:19 PM CST
Nautical Twilight 5:24 AM CST 6:49 PM CST
Astronomical Twilight 4:53 AM CST 7:19 PM CST
Moon 1:26 AM CST (3/5) 11:38 AM CST (3/5)
Length of Visible Light 12h 25m
Length of Day
11h 33m
Last Quarter, 40% of the Moon is Illuminated
Mar 5
Last Quarter
Mar 11
New
Mar 19
First Quarter
Mar 27
Full
Apr 2
Last Quarter

Hourly Weather History & Observations

Time (CST) Temp. Windchill Dew Point Humidity Pressure Visibility Wind Dir Wind Speed Gust Speed Precip Events Conditions
12:35 AM 46.8 °F - 40.5 °F 79% 29.78 in 10.0 mi ESE 5.8 mph - 0.02 in Rain Rain
12:55 AM 46.8 °F - 40.6 °F 79% 29.77 in 10.0 mi East 4.6 mph - 0.02 in   Overcast
1:15 AM 47.3 °F - 40.6 °F 78% 29.77 in 10.0 mi East 4.6 mph - N/A   Overcast
1:35 AM 47.5 °F - 41.0 °F 78% 29.77 in 10.0 mi ESE 4.6 mph - N/A   Overcast
1:55 AM 47.5 °F - 41.2 °F 79% 29.76 in 10.0 mi SE 6.9 mph - N/A   Overcast
2:15 AM 47.8 °F - 41.5 °F 79% 29.75 in 10.0 mi SE 6.9 mph - N/A   Overcast
3:15 AM 46.8 °F - 41.9 °F 83% 29.75 in 10.0 mi Calm Calm - N/A   Mostly Cloudy
3:35 AM 44.4 °F - 40.5 °F 86% 29.75 in 10.0 mi Calm Calm - N/A   Scattered Clouds
3:55 AM 45.0 °F - 43.0 °F 93% 29.76 in 10.0 mi Calm Calm - N/A   Clear
4:15 AM 43.9 °F - 43.2 °F 97% 29.75 in 10.0 mi Calm Calm - N/A   Clear
4:35 AM 43.3 °F - 42.8 °F 98% 29.78 in 10.0 mi Calm Calm - N/A   Clear
4:55 AM 40.5 °F - 40.5 °F 100% 29.77 in 10.0 mi Calm Calm - N/A   Clear
5:15 AM 41.7 °F - 41.7 °F 100% 29.77 in 7.0 mi Calm Calm - N/A   Clear
5:35 AM 40.5 °F - 40.5 °F 100% 29.77 in 7.0 mi Calm Calm - N/A   Clear
6:15 AM 40.1 °F - 40.1 °F 100% 29.77 in 5.0 mi Calm Calm - N/A   Scattered Clouds
6:55 AM 42.3 °F - 42.3 °F 100% 29.77 in 10.0 mi Calm Calm - N/A   Mostly Cloudy
7:15 AM 41.9 °F - 41.9 °F 100% 29.78 in 7.0 mi Calm Calm - N/A   Scattered Clouds
7:35 AM 43.2 °F - 43.2 °F 100% 29.78 in 7.0 mi Calm Calm - N/A Rain Rain
7:55 AM 44.1 °F - 44.1 °F 100% 29.79 in 10.0 mi Calm Calm - N/A Rain Rain
8:15 AM 44.6 °F 41.4 °F 44.6 °F 100% 29.80 in 10.0 mi West 5.8 mph - N/A Rain Light Rain
8:35 AM 44.6 °F 40.2 °F 44.1 °F 98% 29.79 in 10.0 mi WNW 8.1 mph - N/A Rain Light Rain
8:55 AM 45.0 °F 38.9 °F 43.3 °F 94% 29.80 in 10.0 mi WNW 12.7 mph 20.7 mph N/A Rain Light Rain
9:15 AM 43.7 °F 37.7 °F 40.1 °F 87% 29.80 in 10.0 mi NW 11.5 mph 18.4 mph N/A   Light Drizzle
9:55 AM 42.8 °F 36.6 °F 39.7 °F 89% 29.81 in 10.0 mi NW 11.5 mph 18.4 mph 0.01 in   Light Drizzle
10:15 AM 41.5 °F 33.2 °F 37.8 °F 86% 29.82 in 10.0 mi WNW 17.3 mph 29.9 mph N/A   Overcast
10:35 AM 39.6 °F 31.7 °F 35.6 °F 86% 29.83 in 10.0 mi WNW 13.8 mph 24.2 mph N/A   Light Drizzle
10:55 AM 38.3 °F 29.0 °F 34.3 °F 86% 29.83 in 10.0 mi NW 17.3 mph 32.2 mph N/A Rain Light Rain
11:15 AM 37.2 °F 27.6 °F 33.3 °F 86% 29.85 in 7.0 mi NW 17.3 mph 24.2 mph N/A Rain Rain
11:35 AM 35.2 °F 27.6 °F 34.0 °F 95% 29.88 in 5.0 mi WNW 10.4 mph 19.6 mph 0.01 in Rain Rain
11:55 AM 34.5 °F 26.2 °F 34.2 °F 99% 29.88 in 4.0 mi WNW 11.5 mph 16.1 mph 0.02 in Rain Rain
12:15 PM 34.3 °F 25.9 °F 34.3 °F 100% 29.89 in 1.8 mi WNW 11.5 mph 17.3 mph 0.01 in Snow Light Snow
12:55 PM 35.4 °F 26.4 °F 35.1 °F 99% 29.89 in 10.0 mi West 13.8 mph 20.7 mph 0.01 in Rain Light Rain
1:15 PM 35.8 °F 26.1 °F 34.7 °F 96% 29.90 in 10.0 mi WNW 16.1 mph 20.7 mph N/A   Light Drizzle
1:35 PM 36.9 °F 27.5 °F 34.2 °F 90% 29.90 in 10.0 mi WNW 16.1 mph 23.0 mph N/A   Overcast
1:55 PM 36.5 °F 27.4 °F 34.0 °F 91% 29.91 in 10.0 mi WNW 15.0 mph 27.6 mph N/A   Overcast
2:15 PM 36.5 °F 27.0 °F 33.8 °F 90% 29.92 in 10.0 mi WNW 16.1 mph 24.2 mph N/A   Overcast
2:35 PM 37.6 °F 28.4 °F 31.5 °F 79% 29.92 in 10.0 mi NW 16.1 mph 32.2 mph N/A   Overcast
2:55 PM 37.9 °F 28.9 °F 31.8 °F 79% 29.93 in 10.0 mi WNW 16.1 mph 21.9 mph N/A   Overcast
3:15 PM 37.8 °F 28.6 °F 31.3 °F 77% 29.94 in 10.0 mi WNW 16.1 mph 24.2 mph N/A   Overcast
3:35 PM 39.4 °F 31.1 °F 30.7 °F 71% 29.95 in 10.0 mi NW 15.0 mph 23.0 mph N/A   Overcast
3:55 PM 39.2 °F 30.8 °F 30.4 °F 71% 29.95 in 10.0 mi WNW 15.0 mph 18.4 mph N/A   Overcast
4:15 PM 39.2 °F 30.8 °F 29.3 °F 68% 29.96 in 10.0 mi WNW 15.0 mph 26.5 mph N/A   Overcast
4:35 PM 39.2 °F 29.6 °F 27.9 °F 64% 29.97 in 10.0 mi WNW 19.6 mph 24.2 mph N/A   Overcast
4:55 PM 39.2 °F 32.0 °F 27.9 °F 64% 29.98 in 10.0 mi WNW 11.5 mph 18.4 mph N/A   Overcast
5:15 PM 39.2 °F 30.5 °F 25.5 °F 58% 29.99 in 10.0 mi WNW 16.1 mph 27.6 mph N/A   Overcast
5:35 PM 38.5 °F 29.9 °F 23.7 °F 55% 30.00 in 10.0 mi WNW 15.0 mph 31.1 mph N/A   Overcast
5:55 PM 37.6 °F 27.1 °F 23.0 °F 56% 30.01 in 10.0 mi NW 20.7 mph 32.2 mph N/A   Overcast
6:15 PM 36.5 °F 24.9 °F 23.2 °F 59% 30.03 in 10.0 mi WNW 24.2 mph 32.2 mph N/A   Overcast
6:35 PM 34.7 °F 24.7 °F 20.7 °F 57% 30.04 in 10.0 mi West 16.1 mph 21.9 mph N/A   Mostly Cloudy
6:55 PM 34.3 °F 25.0 °F 20.7 °F 57% 30.04 in 10.0 mi WNW 13.8 mph 23.0 mph N/A   Scattered Clouds
7:15 PM 34.2 °F 24.0 °F 21.7 °F 60% 30.05 in 10.0 mi WNW 16.1 mph 21.9 mph N/A   Mostly Cloudy
7:35 PM 34.5 °F 25.3 °F 21.9 °F 60% 30.04 in 10.0 mi WNW 13.8 mph 19.6 mph N/A   Overcast
7:55 PM 34.7 °F 25.5 °F 22.5 °F 61% 30.05 in 10.0 mi West 13.8 mph 25.3 mph N/A   Overcast
8:15 PM 34.7 °F 24.7 °F 22.6 °F 61% 30.04 in 10.0 mi West 16.1 mph 21.9 mph N/A   Overcast
8:35 PM 34.9 °F 25.3 °F 22.6 °F 61% 30.04 in 10.0 mi WNW 15.0 mph 24.2 mph N/A   Overcast
8:55 PM 34.9 °F 25.3 °F 23.0 °F 62% 30.04 in 10.0 mi West 15.0 mph 23.0 mph N/A   Overcast
9:15 PM 34.7 °F 24.7 °F 23.5 °F 64% 30.05 in 10.0 mi WNW 16.1 mph 20.7 mph N/A   Overcast
9:35 PM 34.0 °F 23.0 °F 25.3 °F 71% 30.06 in 7.0 mi WNW 18.4 mph 29.9 mph N/A Snow Light Snow
9:55 PM 33.1 °F 22.2 °F 27.0 °F 78% 30.06 in 7.0 mi West 17.3 mph 28.8 mph N/A Snow Light Snow
10:15 PM 33.4 °F 23.9 °F 26.6 °F 76% 30.06 in 10.0 mi West 13.8 mph 24.2 mph N/A   Overcast
10:35 PM 33.8 °F 23.9 °F 26.2 °F 74% 30.06 in 10.0 mi WNW 15.0 mph 21.9 mph N/A   Overcast
10:55 PM 34.3 °F 24.6 °F 25.5 °F 70% 30.06 in 10.0 mi NW 15.0 mph 27.6 mph N/A   Overcast
11:15 PM 34.3 °F 24.6 °F 25.3 °F 70% 30.06 in 10.0 mi WNW 15.0 mph 23.0 mph N/A   Overcast
11:35 PM 34.5 °F 24.8 °F 25.5 °F 70% 30.06 in 10.0 mi West 15.0 mph 25.3 mph N/A   Overcast
11:55 PM 34.7 °F 24.0 °F 25.2 °F 68% 30.06 in 10.0 mi WNW 18.4 mph 27.6 mph N/A   Overcast